Year,Month,Day,Hour,Minute,Value (Times are PST for temperature in C)
2010,07,31,00,00,17.60
2010,07,31,00,01,17.50
2010,07,31,00,02,17.40
2010,07,31,00,03,17.40
2010,07,31,00,04,17.30
2010,07,31,00,05,17.30
2010,07,31,00,06,17.20
2010,07,31,00,07,17.10
2010,07,31,00,08,17.00
2010,07,31,00,09,17.00
2010,07,31,00,10,17.00
2010,07,31,00,11,16.90
2010,07,31,00,12,16.90
2010,07,31,00,13,16.80
2010,07,31,00,14,16.80
2010,07,31,00,15,16.80
2010,07,31,00,16,16.70
2010,07,31,00,17,16.70
2010,07,31,00,18,16.70
2010,07,31,00,19,16.70
2010,07,31,00,20,16.70
2010,07,31,00,21,16.70
2010,07,31,00,22,16.60
2010,07,31,00,23,16.60
2010,07,31,00,24,16.50
2010,07,31,00,25,16.40
2010,07,31,00,26,16.40
2010,07,31,00,27,16.40
2010,07,31,00,28,16.40
2010,07,31,00,29,16.40
2010,07,31,00,30,16.40
2010,07,31,00,31,16.40
2010,07,31,00,32,16.30
2010,07,31,00,33,16.30
2010,07,31,00,34,16.30
2010,07,31,00,35,16.30
2010,07,31,00,36,16.30
2010,07,31,00,37,16.30
2010,07,31,00,38,16.30
2010,07,31,00,39,16.20
2010,07,31,00,40,16.20
2010,07,31,00,41,16.20
2010,07,31,00,42,16.20
2010,07,31,00,43,16.20
2010,07,31,00,44,16.10
2010,07,31,00,45,16.10
2010,07,31,00,46,16.10
2010,07,31,00,47,16.10
2010,07,31,00,48,16.10
2010,07,31,00,49,15.90
2010,07,31,00,50,15.90
2010,07,31,00,51,15.90
2010,07,31,00,52,15.80
2010,07,31,00,53,15.80
2010,07,31,00,54,15.80
2010,07,31,00,55,15.80
2010,07,31,00,56,15.80
2010,07,31,00,57,15.80
2010,07,31,00,58,15.80
2010,07,31,00,59,15.80
2010,07,31,01,00,15.80
2010,07,31,01,01,15.80
2010,07,31,01,02,15.70
2010,07,31,01,03,15.70
2010,07,31,01,04,15.70
2010,07,31,01,05,15.70
2010,07,31,01,06,15.70
2010,07,31,01,07,15.60
2010,07,31,01,08,15.60
2010,07,31,01,09,15.60
2010,07,31,01,10,15.60
2010,07,31,01,11,15.50
2010,07,31,01,12,15.50
2010,07,31,01,13,15.50
2010,07,31,01,14,15.40
2010,07,31,01,15,15.40
2010,07,31,01,16,15.40
2010,07,31,01,17,15.30
2010,07,31,01,18,15.30
2010,07,31,01,19,15.30
2010,07,31,01,20,15.30
2010,07,31,01,21,15.30
2010,07,31,01,22,15.20
2010,07,31,01,23,15.20
2010,07,31,01,24,15.20
2010,07,31,01,25,15.20
2010,07,31,01,26,15.20
2010,07,31,01,27,15.10
2010,07,31,01,28,15.10
2010,07,31,01,29,15.00
2010,07,31,01,30,15.00
2010,07,31,01,31,14.90
2010,07,31,01,32,14.90
2010,07,31,01,33,14.90
2010,07,31,01,34,14.90
2010,07,31,01,35,14.80
2010,07,31,01,36,14.80
2010,07,31,01,37,14.80
2010,07,31,01,38,14.80
2010,07,31,01,39,14.80
2010,07,31,01,40,14.80
2010,07,31,01,41,14.80
2010,07,31,01,42,14.80
2010,07,31,01,43,14.80
2010,07,31,01,44,14.80
2010,07,31,01,45,14.80
2010,07,31,01,46,14.80
2010,07,31,01,47,14.80
2010,07,31,01,48,14.80
2010,07,31,01,49,14.80
2010,07,31,01,50,14.80
2010,07,31,01,51,14.80
2010,07,31,01,52,14.80
2010,07,31,01,53,14.70
2010,07,31,01,54,14.70
2010,07,31,01,55,14.70
2010,07,31,01,56,14.70
2010,07,31,01,57,14.70
2010,07,31,01,58,14.70
2010,07,31,01,59,14.70
2010,07,31,02,00,14.70
2010,07,31,02,01,14.70
2010,07,31,02,02,14.60
2010,07,31,02,03,14.60
2010,07,31,02,04,14.60
2010,07,31,02,05,14.60
2010,07,31,02,06,14.60
2010,07,31,02,07,14.60
2010,07,31,02,08,14.60
2010,07,31,02,09,14.60
2010,07,31,02,10,14.60
2010,07,31,02,11,14.60
2010,07,31,02,12,14.60
2010,07,31,02,13,14.60
2010,07,31,02,14,14.60
2010,07,31,02,15,14.60
2010,07,31,02,16,14.50
2010,07,31,02,17,14.50
2010,07,31,02,18,14.50
2010,07,31,02,19,14.60
2010,07,31,02,20,14.50
2010,07,31,02,21,14.50
2010,07,31,02,22,14.50
2010,07,31,02,23,14.50
2010,07,31,02,24,14.50
2010,07,31,02,25,14.50
2010,07,31,02,26,14.50
2010,07,31,02,27,14.50
2010,07,31,02,28,14.50
2010,07,31,02,29,14.50
2010,07,31,02,30,14.50
2010,07,31,02,31,14.40
2010,07,31,02,32,14.40
2010,07,31,02,33,14.40
2010,07,31,02,34,14.40
2010,07,31,02,35,14.40
2010,07,31,02,36,14.40
2010,07,31,02,37,14.40
2010,07,31,02,38,14.40
2010,07,31,02,39,14.30
2010,07,31,02,40,14.30
2010,07,31,02,41,14.30
2010,07,31,02,42,14.20
2010,07,31,02,43,14.20
2010,07,31,02,44,14.20
2010,07,31,02,45,14.20
2010,07,31,02,46,14.10
2010,07,31,02,47,14.10
2010,07,31,02,48,14.10
2010,07,31,02,49,14.00
2010,07,31,02,50,14.00
2010,07,31,02,51,14.00
2010,07,31,02,52,14.00
2010,07,31,02,53,13.90
2010,07,31,02,54,13.90
2010,07,31,02,55,13.90
2010,07,31,02,56,13.90
2010,07,31,02,57,13.90
2010,07,31,02,58,13.80
2010,07,31,02,59,13.80
2010,07,31,03,00,13.80
2010,07,31,03,01,13.80
2010,07,31,03,02,13.70
2010,07,31,03,03,13.70
2010,07,31,03,04,13.70
2010,07,31,03,05,13.70
2010,07,31,03,06,13.60
2010,07,31,03,07,13.60
2010,07,31,03,08,13.50
2010,07,31,03,09,13.40
2010,07,31,03,10,13.30
2010,07,31,03,11,13.30
2010,07,31,03,12,13.20
2010,07,31,03,13,13.20
2010,07,31,03,14,13.10
2010,07,31,03,15,13.10
2010,07,31,03,16,13.00
2010,07,31,03,17,13.00
2010,07,31,03,18,12.90
2010,07,31,03,19,12.80
2010,07,31,03,20,12.80
2010,07,31,03,21,12.80
2010,07,31,03,22,12.80
2010,07,31,03,23,12.80
2010,07,31,03,24,12.80
2010,07,31,03,25,12.70
2010,07,31,03,26,12.60
2010,07,31,03,27,12.60
2010,07,31,03,28,12.60
2010,07,31,03,29,12.50
2010,07,31,03,30,12.50
2010,07,31,03,31,12.40
2010,07,31,03,32,12.40
2010,07,31,03,33,12.40
2010,07,31,03,34,12.30
2010,07,31,03,35,12.30
2010,07,31,03,36,12.30
2010,07,31,03,37,12.30
2010,07,31,03,38,12.30
2010,07,31,03,39,12.30
2010,07,31,03,40,12.20
2010,07,31,03,41,12.20
2010,07,31,03,42,12.20
2010,07,31,03,43,12.10
2010,07,31,03,44,12.10
2010,07,31,03,45,12.10
2010,07,31,03,46,12.10
2010,07,31,03,47,12.10
2010,07,31,03,48,12.00
2010,07,31,03,49,12.00
2010,07,31,03,50,12.00
2010,07,31,03,51,12.00
2010,07,31,03,52,11.90
2010,07,31,03,53,11.90
2010,07,31,03,54,11.90
2010,07,31,03,55,11.90
2010,07,31,03,56,11.80
2010,07,31,03,57,11.80
2010,07,31,03,58,11.80
2010,07,31,03,59,11.80
2010,07,31,04,00,11.80
2010,07,31,04,01,11.80
2010,07,31,04,02,11.80
2010,07,31,04,03,11.80
2010,07,31,04,04,11.80
2010,07,31,04,05,11.80
2010,07,31,04,06,11.80
2010,07,31,04,07,11.80
2010,07,31,04,08,11.80
2010,07,31,04,09,11.90
2010,07,31,04,10,11.90
2010,07,31,04,11,11.90
2010,07,31,04,12,12.00
2010,07,31,04,13,12.00
2010,07,31,04,14,12.00
2010,07,31,04,15,12.00
2010,07,31,04,16,12.00
2010,07,31,04,17,12.10
2010,07,31,04,18,12.10
2010,07,31,04,19,12.10
2010,07,31,04,20,12.10
2010,07,31,04,21,12.10
2010,07,31,04,22,12.10
2010,07,31,04,23,12.00
2010,07,31,04,24,12.00
2010,07,31,04,25,12.00
2010,07,31,04,26,12.00
2010,07,31,04,27,12.00
2010,07,31,04,28,12.00
2010,07,31,04,29,12.00
2010,07,31,04,30,11.90
2010,07,31,04,31,11.90
2010,07,31,04,32,11.90
2010,07,31,04,33,11.90
2010,07,31,04,34,11.80
2010,07,31,04,35,11.80
2010,07,31,04,36,11.80
2010,07,31,04,37,11.80
2010,07,31,04,38,11.80
2010,07,31,04,39,11.80
2010,07,31,04,40,11.80
2010,07,31,04,41,11.80
2010,07,31,04,42,11.80
2010,07,31,04,43,11.80
2010,07,31,04,44,11.80
2010,07,31,04,45,11.80
2010,07,31,04,46,11.70
2010,07,31,04,47,11.70
2010,07,31,04,48,11.70
2010,07,31,04,49,11.70
2010,07,31,04,50,11.70
2010,07,31,04,51,11.70
2010,07,31,04,52,11.70
2010,07,31,04,53,11.70
2010,07,31,04,54,11.70
2010,07,31,04,55,11.70
2010,07,31,04,56,11.60
2010,07,31,04,57,11.60
2010,07,31,04,58,11.60
2010,07,31,04,59,11.60
2010,07,31,05,00,11.70
2010,07,31,05,01,11.70
2010,07,31,05,02,11.70
2010,07,31,05,03,11.70
2010,07,31,05,04,11.70
2010,07,31,05,05,11.70
2010,07,31,05,06,11.60
2010,07,31,05,07,11.70
2010,07,31,05,08,11.70
2010,07,31,05,09,11.70
2010,07,31,05,10,11.70
2010,07,31,05,11,11.70
2010,07,31,05,12,11.70
2010,07,31,05,13,11.70
2010,07,31,05,14,11.80
2010,07,31,05,15,11.80
2010,07,31,05,16,11.80
2010,07,31,05,17,11.80
2010,07,31,05,18,11.80
2010,07,31,05,19,11.80
2010,07,31,05,20,11.80
2010,07,31,05,21,11.80
2010,07,31,05,22,11.80
2010,07,31,05,23,11.80
2010,07,31,05,24,11.80
2010,07,31,05,25,11.80
2010,07,31,05,26,11.80
2010,07,31,05,27,11.80
2010,07,31,05,28,11.80
2010,07,31,05,29,11.80
2010,07,31,05,30,11.80
2010,07,31,05,31,11.80
2010,07,31,05,32,11.80
2010,07,31,05,33,11.80
2010,07,31,05,34,11.80
2010,07,31,05,35,11.80
2010,07,31,05,36,11.80
2010,07,31,05,37,11.80
2010,07,31,05,38,11.80
2010,07,31,05,39,11.80
2010,07,31,05,40,11.80
2010,07,31,05,41,11.80
2010,07,31,05,42,11.80
2010,07,31,05,43,11.80
2010,07,31,05,44,11.80
2010,07,31,05,45,11.80
2010,07,31,05,46,11.80
2010,07,31,05,47,11.80
2010,07,31,05,48,11.80
2010,07,31,05,49,11.70
2010,07,31,05,50,11.70
2010,07,31,05,51,11.70
2010,07,31,05,52,11.70
2010,07,31,05,53,11.70
2010,07,31,05,54,11.70
2010,07,31,05,55,11.70
2010,07,31,05,56,11.70
2010,07,31,05,57,11.70
2010,07,31,05,58,11.80
2010,07,31,05,59,11.80
2010,07,31,06,00,11.80
2010,07,31,06,01,11.80
2010,07,31,06,02,11.80
2010,07,31,06,03,11.80
2010,07,31,06,04,11.80
2010,07,31,06,05,11.80
2010,07,31,06,06,11.80
2010,07,31,06,07,11.80
2010,07,31,06,08,11.80
2010,07,31,06,09,11.80
2010,07,31,06,10,11.80
2010,07,31,06,11,11.80
2010,07,31,06,12,11.80
2010,07,31,06,13,11.80
2010,07,31,06,14,11.80
2010,07,31,06,15,11.80
2010,07,31,06,16,11.80
2010,07,31,06,17,11.80
2010,07,31,06,18,11.80
2010,07,31,06,19,11.80
2010,07,31,06,20,11.80
2010,07,31,06,21,11.80
2010,07,31,06,22,11.80
2010,07,31,06,23,11.80
2010,07,31,06,24,11.80
2010,07,31,06,25,11.80
2010,07,31,06,26,11.80
2010,07,31,06,27,11.80
2010,07,31,06,28,11.80
2010,07,31,06,29,11.80
2010,07,31,06,30,11.80
2010,07,31,06,31,11.80
2010,07,31,06,32,11.70
2010,07,31,06,33,11.70
2010,07,31,06,34,11.70
2010,07,31,06,35,11.70
2010,07,31,06,36,11.70
2010,07,31,06,37,11.70
2010,07,31,06,38,11.70
2010,07,31,06,39,11.70
2010,07,31,06,40,11.70
2010,07,31,06,41,11.70
2010,07,31,06,42,11.70
2010,07,31,06,43,11.70
2010,07,31,06,44,11.70
2010,07,31,06,45,11.70
2010,07,31,06,46,11.80
2010,07,31,06,47,11.80
2010,07,31,06,48,11.80
2010,07,31,06,49,11.80
2010,07,31,06,50,11.80
2010,07,31,06,51,11.80
2010,07,31,06,52,11.80
2010,07,31,06,53,11.80
2010,07,31,06,54,11.80
2010,07,31,06,55,11.80
2010,07,31,06,56,11.90
2010,07,31,06,57,11.90
2010,07,31,06,58,11.90
2010,07,31,06,59,11.90
2010,07,31,07,00,12.00
2010,07,31,07,01,12.00
2010,07,31,07,02,12.10
2010,07,31,07,03,12.10
2010,07,31,07,04,12.20
2010,07,31,07,05,12.20
2010,07,31,07,06,12.20
2010,07,31,07,07,12.30
2010,07,31,07,08,12.30
2010,07,31,07,09,12.30
2010,07,31,07,10,12.30
2010,07,31,07,11,12.30
2010,07,31,07,12,12.40
2010,07,31,07,13,12.40
2010,07,31,07,14,12.40
2010,07,31,07,15,12.50
2010,07,31,07,16,12.50
2010,07,31,07,17,12.60
2010,07,31,07,18,12.60
2010,07,31,07,19,12.70
2010,07,31,07,20,12.70
2010,07,31,07,21,12.70
2010,07,31,07,22,12.80
2010,07,31,07,23,12.80
2010,07,31,07,24,12.80
2010,07,31,07,25,12.80
2010,07,31,07,26,12.90
2010,07,31,07,27,12.90
2010,07,31,07,28,12.90
2010,07,31,07,29,13.00
2010,07,31,07,30,13.00
2010,07,31,07,31,13.10
2010,07,31,07,32,13.10
2010,07,31,07,33,13.20
2010,07,31,07,34,13.20
2010,07,31,07,35,13.30
2010,07,31,07,36,13.30
2010,07,31,07,37,13.40
2010,07,31,07,38,13.50
2010,07,31,07,39,13.50
2010,07,31,07,40,13.60
2010,07,31,07,41,13.60
2010,07,31,07,42,13.70
2010,07,31,07,43,13.70
2010,07,31,07,44,13.70
2010,07,31,07,45,13.80
2010,07,31,07,46,13.90
2010,07,31,07,47,13.90
2010,07,31,07,48,14.00
2010,07,31,07,49,14.10
2010,07,31,07,50,14.20
2010,07,31,07,51,14.40
2010,07,31,07,52,14.50
2010,07,31,07,53,14.60
2010,07,31,07,54,14.70
2010,07,31,07,55,14.80
2010,07,31,07,56,14.80
2010,07,31,07,57,15.00
2010,07,31,07,58,15.00
2010,07,31,07,59,15.10
2010,07,31,08,00,15.20
2010,07,31,08,01,15.30
2010,07,31,08,02,15.30
2010,07,31,08,03,15.40
2010,07,31,08,04,15.40
2010,07,31,08,05,15.40
2010,07,31,08,06,15.50
2010,07,31,08,07,15.50
2010,07,31,08,08,15.60
2010,07,31,08,09,15.70
2010,07,31,08,10,15.80
2010,07,31,08,11,15.90
2010,07,31,08,12,16.00
2010,07,31,08,13,16.10
2010,07,31,08,14,16.10
2010,07,31,08,15,16.20
2010,07,31,08,16,16.30
2010,07,31,08,17,16.40
2010,07,31,08,18,16.60
2010,07,31,08,19,16.70
2010,07,31,08,20,16.90
2010,07,31,08,21,16.90
2010,07,31,08,22,17.10
2010,07,31,08,23,17.20
2010,07,31,08,24,17.20
2010,07,31,08,25,17.20
2010,07,31,08,26,17.20
2010,07,31,08,27,17.40
2010,07,31,08,28,17.50
2010,07,31,08,29,17.50
2010,07,31,08,30,17.60
2010,07,31,08,31,17.70
2010,07,31,08,32,17.70
2010,07,31,08,33,17.80
2010,07,31,08,34,17.80
2010,07,31,08,35,17.80
2010,07,31,08,36,17.70
2010,07,31,08,37,17.60
2010,07,31,08,38,17.50
2010,07,31,08,39,17.40
2010,07,31,08,40,17.40
2010,07,31,08,41,17.30
2010,07,31,08,42,17.30
2010,07,31,08,43,17.30
2010,07,31,08,44,17.30
2010,07,31,08,45,17.30
2010,07,31,08,46,17.30
2010,07,31,08,47,17.20
2010,07,31,08,48,17.10
2010,07,31,08,49,17.10
2010,07,31,08,50,17.10
2010,07,31,08,51,17.10
2010,07,31,08,52,17.10
2010,07,31,08,53,17.20
2010,07,31,08,54,17.10
2010,07,31,08,55,17.10
2010,07,31,08,56,17.00
2010,07,31,08,57,16.90
2010,07,31,08,58,17.00
2010,07,31,08,59,17.00
2010,07,31,09,00,17.10
2010,07,31,09,01,17.10
2010,07,31,09,02,17.20
2010,07,31,09,03,17.30
2010,07,31,09,04,17.30
2010,07,31,09,05,17.40
2010,07,31,09,06,17.40
2010,07,31,09,07,17.40
2010,07,31,09,08,17.50
2010,07,31,09,09,17.50
2010,07,31,09,10,17.60
2010,07,31,09,11,17.60
2010,07,31,09,12,17.60
2010,07,31,09,13,17.70
2010,07,31,09,14,17.70
2010,07,31,09,15,17.80
2010,07,31,09,16,17.90
2010,07,31,09,17,17.90
2010,07,31,09,18,17.90
2010,07,31,09,19,18.00
2010,07,31,09,20,18.10
2010,07,31,09,21,18.20
2010,07,31,09,22,18.10
2010,07,31,09,23,18.00
2010,07,31,09,24,17.90
2010,07,31,09,25,18.10
2010,07,31,09,26,18.10
2010,07,31,09,27,18.20
2010,07,31,09,28,18.20
2010,07,31,09,29,18.20
2010,07,31,09,30,18.10
2010,07,31,09,31,18.00
2010,07,31,09,32,18.00
2010,07,31,09,33,18.10
2010,07,31,09,34,18.00
2010,07,31,09,35,17.80
2010,07,31,09,36,17.70
2010,07,31,09,37,17.60
2010,07,31,09,38,17.60
2010,07,31,09,39,17.50
2010,07,31,09,40,17.40
2010,07,31,09,41,17.40
2010,07,31,09,42,17.50
2010,07,31,09,43,17.50
2010,07,31,09,44,17.40
2010,07,31,09,45,17.30
2010,07,31,09,46,17.30
2010,07,31,09,47,17.40
2010,07,31,09,48,17.50
2010,07,31,09,49,17.60
2010,07,31,09,50,17.70
2010,07,31,09,51,17.70
2010,07,31,09,52,17.80
2010,07,31,09,53,17.90
2010,07,31,09,54,18.10
2010,07,31,09,55,18.20
2010,07,31,09,56,18.20
2010,07,31,09,57,18.20
2010,07,31,09,58,18.20
2010,07,31,09,59,18.20
2010,07,31,10,00,18.10
2010,07,31,10,01,18.10
2010,07,31,10,02,18.10
2010,07,31,10,03,18.00
2010,07,31,10,04,17.90
2010,07,31,10,05,17.90
2010,07,31,10,06,17.80
2010,07,31,10,07,17.70
2010,07,31,10,08,17.50
2010,07,31,10,09,17.50
2010,07,31,10,10,17.50
2010,07,31,10,11,17.50
2010,07,31,10,12,17.60
2010,07,31,10,13,17.80
2010,07,31,10,14,17.90
2010,07,31,10,15,17.90
2010,07,31,10,16,17.90
2010,07,31,10,17,17.80
2010,07,31,10,18,17.70
2010,07,31,10,19,17.50
2010,07,31,10,20,17.50
2010,07,31,10,21,17.50
2010,07,31,10,22,17.60
2010,07,31,10,23,17.60
2010,07,31,10,24,17.60
2010,07,31,10,25,17.70
2010,07,31,10,26,17.70
2010,07,31,10,27,17.70
2010,07,31,10,28,17.70
2010,07,31,10,29,17.60
2010,07,31,10,30,17.60
2010,07,31,10,31,17.60
2010,07,31,10,32,17.70
2010,07,31,10,33,17.80
2010,07,31,10,34,17.80
2010,07,31,10,35,17.80
2010,07,31,10,36,17.90
2010,07,31,10,37,18.00
2010,07,31,10,38,18.10
2010,07,31,10,39,18.10
2010,07,31,10,40,18.00
2010,07,31,10,41,17.90
2010,07,31,10,42,17.90
2010,07,31,10,43,17.90
2010,07,31,10,44,18.00
2010,07,31,10,45,18.10
2010,07,31,10,46,18.20
2010,07,31,10,47,18.30
2010,07,31,10,48,18.10
2010,07,31,10,49,17.80
2010,07,31,10,50,17.50
2010,07,31,10,51,17.30
2010,07,31,10,52,17.20
2010,07,31,10,53,17.20
2010,07,31,10,54,17.30
2010,07,31,10,55,17.30
2010,07,31,10,56,17.30
2010,07,31,10,57,17.10
2010,07,31,10,58,16.80
2010,07,31,10,59,16.50
2010,07,31,11,00,16.30
2010,07,31,11,01,16.10
2010,07,31,11,02,16.00
2010,07,31,11,03,16.00
2010,07,31,11,04,16.10
2010,07,31,11,05,16.10
2010,07,31,11,06,16.10
2010,07,31,11,07,16.30
2010,07,31,11,08,16.40
2010,07,31,11,09,16.50
2010,07,31,11,10,16.40
2010,07,31,11,11,16.40
2010,07,31,11,12,16.40
2010,07,31,11,13,16.20
2010,07,31,11,14,16.00
2010,07,31,11,15,15.90
2010,07,31,11,16,15.70
2010,07,31,11,17,15.50
2010,07,31,11,18,15.40
2010,07,31,11,19,15.30
2010,07,31,11,20,15.30
2010,07,31,11,21,15.30
2010,07,31,11,22,15.30
2010,07,31,11,23,15.20
2010,07,31,11,24,15.20
2010,07,31,11,25,15.30
2010,07,31,11,26,15.50
2010,07,31,11,27,15.60
2010,07,31,11,28,15.70
2010,07,31,11,29,15.80
2010,07,31,11,30,16.10
2010,07,31,11,31,16.20
2010,07,31,11,32,16.30
2010,07,31,11,33,16.40
2010,07,31,11,34,16.40
2010,07,31,11,35,16.30
2010,07,31,11,36,16.30
2010,07,31,11,37,16.30
2010,07,31,11,38,16.30
2010,07,31,11,39,16.30
2010,07,31,11,40,16.20
2010,07,31,11,41,16.10
2010,07,31,11,42,16.00
2010,07,31,11,43,15.80
2010,07,31,11,44,15.60
2010,07,31,11,45,15.60
2010,07,31,11,46,15.60
2010,07,31,11,47,15.40
2010,07,31,11,48,15.40
2010,07,31,11,49,15.40
2010,07,31,11,50,15.40
2010,07,31,11,51,15.40
2010,07,31,11,52,15.50
2010,07,31,11,53,15.60
2010,07,31,11,54,15.70
2010,07,31,11,55,15.80
2010,07,31,11,56,15.80
2010,07,31,11,57,15.90
2010,07,31,11,58,15.90
2010,07,31,11,59,15.90
2010,07,31,12,00,16.00
2010,07,31,12,01,15.80
2010,07,31,12,02,15.50
2010,07,31,12,03,15.50
2010,07,31,12,04,15.50
2010,07,31,12,05,15.50
2010,07,31,12,06,15.50
2010,07,31,12,07,15.50
2010,07,31,12,08,15.50
2010,07,31,12,09,15.70
2010,07,31,12,10,15.80
2010,07,31,12,11,15.90
2010,07,31,12,12,16.10
2010,07,31,12,13,16.20
2010,07,31,12,14,16.40
2010,07,31,12,15,16.60
2010,07,31,12,16,16.70
2010,07,31,12,17,16.80
2010,07,31,12,18,16.80
2010,07,31,12,19,16.90
2010,07,31,12,20,16.90
2010,07,31,12,21,16.90
2010,07,31,12,22,16.90
2010,07,31,12,23,16.70
2010,07,31,12,24,16.50
2010,07,31,12,25,16.30
2010,07,31,12,26,16.20
2010,07,31,12,27,15.90
2010,07,31,12,28,15.50
2010,07,31,12,29,15.30
2010,07,31,12,30,15.20
2010,07,31,12,31,15.20
2010,07,31,12,32,15.20
2010,07,31,12,33,15.10
2010,07,31,12,34,14.90
2010,07,31,12,35,14.70
2010,07,31,12,36,14.60
2010,07,31,12,37,14.60
2010,07,31,12,38,14.50
2010,07,31,12,39,14.40
2010,07,31,12,40,14.40
2010,07,31,12,41,14.40
2010,07,31,12,42,14.40
2010,07,31,12,43,14.40
2010,07,31,12,44,14.30
2010,07,31,12,45,14.20
2010,07,31,12,46,14.20
2010,07,31,12,47,14.30
2010,07,31,12,48,14.50
2010,07,31,12,49,14.60
2010,07,31,12,50,14.60
2010,07,31,12,51,14.60
2010,07,31,12,52,14.60
2010,07,31,12,53,14.60
2010,07,31,12,54,14.50
2010,07,31,12,55,14.50
2010,07,31,12,56,14.40
2010,07,31,12,57,14.40
2010,07,31,12,58,14.40
2010,07,31,12,59,14.30
2010,07,31,13,00,14.40
2010,07,31,13,01,14.40
2010,07,31,13,02,14.40
2010,07,31,13,03,14.50
2010,07,31,13,04,14.50
2010,07,31,13,05,14.60
2010,07,31,13,06,14.60
2010,07,31,13,07,14.60
2010,07,31,13,08,14.70
2010,07,31,13,09,14.60
2010,07,31,13,10,14.60
2010,07,31,13,11,14.60
2010,07,31,13,12,14.60
2010,07,31,13,13,14.60
2010,07,31,13,14,14.60
2010,07,31,13,15,14.60
2010,07,31,13,16,14.60
2010,07,31,13,17,14.50
2010,07,31,13,18,14.50
2010,07,31,13,19,14.40
2010,07,31,13,20,14.20
2010,07,31,13,21,14.20
2010,07,31,13,22,14.20
2010,07,31,13,23,14.10
2010,07,31,13,24,14.10
2010,07,31,13,25,14.00
2010,07,31,13,26,14.00
2010,07,31,13,27,14.00
2010,07,31,13,28,14.00
2010,07,31,13,29,14.00
2010,07,31,13,30,13.90
2010,07,31,13,31,13.90
2010,07,31,13,32,13.80
2010,07,31,13,33,13.70
2010,07,31,13,34,13.80
2010,07,31,13,35,13.80
2010,07,31,13,36,13.90
2010,07,31,13,37,13.90
2010,07,31,13,38,13.80
2010,07,31,13,39,13.70
2010,07,31,13,40,13.60
2010,07,31,13,41,13.30
2010,07,31,13,42,13.20
2010,07,31,13,43,13.20
2010,07,31,13,44,13.10
2010,07,31,13,45,13.00
2010,07,31,13,46,13.00
2010,07,31,13,47,13.10
2010,07,31,13,48,13.10
2010,07,31,13,49,13.10
2010,07,31,13,50,13.10
2010,07,31,13,51,13.00
2010,07,31,13,52,12.90
2010,07,31,13,53,12.90
2010,07,31,13,54,12.90
2010,07,31,13,55,12.90
2010,07,31,13,56,12.90
2010,07,31,13,57,12.90
2010,07,31,13,58,12.90
2010,07,31,13,59,12.80
2010,07,31,14,00,12.80
2010,07,31,14,01,12.80
2010,07,31,14,02,12.80
2010,07,31,14,03,12.80
2010,07,31,14,04,12.80
2010,07,31,14,05,12.80
2010,07,31,14,06,12.80
2010,07,31,14,07,12.80
2010,07,31,14,08,12.70
2010,07,31,14,09,12.60
2010,07,31,14,10,12.70
2010,07,31,14,11,12.70
2010,07,31,14,12,12.60
2010,07,31,14,13,12.60
2010,07,31,14,14,12.60
2010,07,31,14,15,12.70
2010,07,31,14,16,12.70
2010,07,31,14,17,12.70
2010,07,31,14,18,12.70
2010,07,31,14,19,12.70
2010,07,31,14,20,12.80
2010,07,31,14,21,12.80
2010,07,31,14,22,12.80
2010,07,31,14,23,12.80
2010,07,31,14,24,12.80
2010,07,31,14,25,12.80
2010,07,31,14,26,12.70
2010,07,31,14,27,12.70
2010,07,31,14,28,12.70
2010,07,31,14,29,12.80
2010,07,31,14,30,12.80
2010,07,31,14,31,12.80
2010,07,31,14,32,12.90
2010,07,31,14,33,12.90
2010,07,31,14,34,12.90
2010,07,31,14,35,12.90
2010,07,31,14,36,12.90
2010,07,31,14,37,13.00
2010,07,31,14,38,13.10
2010,07,31,14,39,13.10
2010,07,31,14,40,13.10
2010,07,31,14,41,13.10
2010,07,31,14,42,13.30
2010,07,31,14,43,13.40
2010,07,31,14,44,13.30
2010,07,31,14,45,13.40
2010,07,31,14,46,13.40
2010,07,31,14,47,13.40
2010,07,31,14,48,13.40
2010,07,31,14,49,13.50
2010,07,31,14,50,13.50
2010,07,31,14,51,13.50
2010,07,31,14,52,13.40
2010,07,31,14,53,13.20
2010,07,31,14,54,13.20
2010,07,31,14,55,13.30
2010,07,31,14,56,13.40
2010,07,31,14,57,13.60
2010,07,31,14,58,13.70
2010,07,31,14,59,13.80
2010,07,31,15,00,13.90
2010,07,31,15,01,14.10
2010,07,31,15,02,14.20
2010,07,31,15,03,14.40
2010,07,31,15,04,14.60
2010,07,31,15,05,14.70
2010,07,31,15,06,14.80
2010,07,31,15,07,14.80
2010,07,31,15,08,14.70
2010,07,31,15,09,14.50
2010,07,31,15,10,14.40
2010,07,31,15,11,14.40
2010,07,31,15,12,14.20
2010,07,31,15,13,14.20
2010,07,31,15,14,14.10
2010,07,31,15,15,14.10
2010,07,31,15,16,14.20
2010,07,31,15,17,14.00
2010,07,31,15,18,14.00
2010,07,31,15,19,14.10
2010,07,31,15,20,14.20
2010,07,31,15,21,14.30
2010,07,31,15,22,14.30
2010,07,31,15,23,14.20
2010,07,31,15,24,14.00
2010,07,31,15,25,13.90
2010,07,31,15,26,13.80
2010,07,31,15,27,13.70
2010,07,31,15,28,13.70
2010,07,31,15,29,13.50
2010,07,31,15,30,13.50
2010,07,31,15,31,13.40
2010,07,31,15,32,13.40
2010,07,31,15,33,13.40
2010,07,31,15,34,13.40
2010,07,31,15,35,13.50
2010,07,31,15,36,13.50
2010,07,31,15,37,13.40
2010,07,31,15,38,13.40
2010,07,31,15,39,13.50
2010,07,31,15,40,13.60
2010,07,31,15,41,13.70
2010,07,31,15,42,13.90
2010,07,31,15,43,13.90
2010,07,31,15,44,13.80
2010,07,31,15,45,13.80
2010,07,31,15,46,13.80
2010,07,31,15,47,13.90
2010,07,31,15,48,14.10
2010,07,31,15,49,14.20
2010,07,31,15,50,14.40
2010,07,31,15,51,14.40
2010,07,31,15,52,14.40
2010,07,31,15,53,14.50
2010,07,31,15,54,14.60
2010,07,31,15,55,14.50
2010,07,31,15,56,14.60
2010,07,31,15,57,14.60
2010,07,31,15,58,14.70
2010,07,31,15,59,14.80
2010,07,31,16,00,15.00
2010,07,31,16,01,15.10
2010,07,31,16,02,15.10
2010,07,31,16,03,15.10
2010,07,31,16,04,15.20
2010,07,31,16,05,15.30
2010,07,31,16,06,15.20
2010,07,31,16,07,15.10
2010,07,31,16,08,15.00
2010,07,31,16,09,15.00
2010,07,31,16,10,15.00
2010,07,31,16,11,15.00
2010,07,31,16,12,15.00
2010,07,31,16,13,15.00
2010,07,31,16,14,15.10
2010,07,31,16,15,15.10
2010,07,31,16,16,15.10
2010,07,31,16,17,15.30
2010,07,31,16,18,15.30
2010,07,31,16,19,15.40
2010,07,31,16,20,15.60
2010,07,31,16,21,15.70
2010,07,31,16,22,15.80
2010,07,31,16,23,16.00
2010,07,31,16,24,16.10
2010,07,31,16,25,16.00
2010,07,31,16,26,16.00
2010,07,31,16,27,16.10
2010,07,31,16,28,15.90
2010,07,31,16,29,15.80
2010,07,31,16,30,15.70
2010,07,31,16,31,15.80
2010,07,31,16,32,15.80
2010,07,31,16,33,15.90
2010,07,31,16,34,16.10
2010,07,31,16,35,16.10
2010,07,31,16,36,16.30
2010,07,31,16,37,16.40
2010,07,31,16,38,16.60
2010,07,31,16,39,16.70
2010,07,31,16,40,16.80
2010,07,31,16,41,16.90
2010,07,31,16,42,17.10
2010,07,31,16,43,17.30
2010,07,31,16,44,17.50
2010,07,31,16,45,17.60
2010,07,31,16,46,17.70
2010,07,31,16,47,17.70
2010,07,31,16,48,17.80
2010,07,31,16,49,18.00
2010,07,31,16,50,18.10
2010,07,31,16,51,18.30
2010,07,31,16,52,18.40
2010,07,31,16,53,18.40
2010,07,31,16,54,18.40
2010,07,31,16,55,18.40
2010,07,31,16,56,18.40
2010,07,31,16,57,18.40
2010,07,31,16,58,18.50
2010,07,31,16,59,18.50
2010,07,31,17,00,18.40
2010,07,31,17,01,18.30
2010,07,31,17,02,18.30
2010,07,31,17,03,18.20
2010,07,31,17,04,18.10
2010,07,31,17,05,18.00
2010,07,31,17,06,17.90
2010,07,31,17,07,17.80
2010,07,31,17,08,17.70
2010,07,31,17,09,17.70
2010,07,31,17,10,17.60
2010,07,31,17,11,17.60
2010,07,31,17,12,17.50
2010,07,31,17,13,17.40
2010,07,31,17,14,17.40
2010,07,31,17,15,17.60
2010,07,31,17,16,17.70
2010,07,31,17,17,17.70
2010,07,31,17,18,17.80
2010,07,31,17,19,17.80